Simultaneous Nadir Overpasses (SNOs) Predictions

Prediction of SNOs between GOES-17 and NPP Satellite Orbit:

Table of predicted SNOs for the next 14.0 days since TLE Epoch: 3/2/2024
Index Date Time (GOES-17) GOES-17 Lat,Lon NPP Lat,Lon Distance(km) Time Diff (sec)
1 03/03/2024 08:26:59 0.01,-104.70 0.11,-105.04 39.66 80
2 03/04/2024 08:05:34 0.01,-104.70 -0.91,-100.51 477.17 80
3 03/05/2024 20:27:29 -0.02,-104.68 -0.25,-105.81 128.76 80
4 03/06/2024 20:11:22 -0.02,-104.67 0.71,-101.26 388.07 80
5 03/08/2024 08:33:10 0.02,-104.69 0.41,-106.54 209.77 80
6 03/09/2024 08:11:43 0.02,-104.69 -0.56,-101.99 307.03 80
7 03/10/2024 20:33:39 -0.02,-104.67 -0.59,-107.30 298.82 80
8 03/11/2024 20:17:32 -0.02,-104.67 0.38,-102.75 218.30 80
9 03/13/2024 08:39:18 0.02,-104.70 0.79,-108.02 378.86 80
10 03/14/2024 08:17:53 0.03,-104.70 -0.24,-103.48 138.13 80
11 03/15/2024 20:39:47 -0.03,-104.67 -0.96,-108.78 467.83 80
